User: anonymous   Login
Location: Unspecified
(51.3762°N, 0.0000°E)
Time: 11:04:51
(UTC+00:00)
Language:

NANOSAT C BR1 - Orbit

View from above orbital plane
View from above orbital plane
View from above satellite
View from above satellite

Ground track
Ground track

The orbit data is extracted from the following two-line orbital elements,

1 40024U 14033Q   19197.30872866 +.00000170 +00000-0 +23621-4 0  9994
2 40024 097.9132 119.3469 0011478 329.5585 030.4965 14.89855277275034
Epoch (UTC): 16 July 2019 07:24:34
Eccentricity: 0.0011478
inclination: 97.9132°
perigee height: 590 km
apogee height: 606 km
right ascension of ascending node: 119.3469°
argument of perigee: 329.5585°
revolutions per day: 14.89855277
mean anomaly at epoch: 30.4965°
orbit number at epoch: 27503

The dashed part of the orbit path shows where the satellite is in the earth's shadow,  

DLR